Weather History for Dubuque, IA

Change the Weather History Date:

Sunday, April 7, 2013

  Actual Average Record
Temperature  
Mean Temperature 47 °F 45 °F  
Max Temperature 59 °F 55 °F 80 °F (1893)
Min Temperature 35 °F 35 °F 11 °F (1982)
Degree Days  
Heating Degree Days 18 20  
Month to date heating degree days 183 150  
Since 1 July heating degree days 6606 6461  
Cooling Degree Days 0 0  
Month to date cooling degree days 0 0  
Year to date cooling degree days 0 0  
Moisture  
Dew Point 37 °F    
Average Humidity 68    
Maximum Humidity 92    
Minimum Humidity 44    
Precipitation  
Precipitation 0.00 in 0.11 in 0.87 in (2002)
Month to date precipitation 0.12 0.75  
Year to date precipitation 6.11 5.77  
Snow  
Snow 0.00 in 0.10 in - ()
Month to date snowfall 0.0 0.8  
Since 1 July snowfall 54.5 40.7  
Snow Depth 0.00 in    
Sea Level Pressure  
Sea Level Pressure 29.86 in    
Wind  
Wind Speed 8 mph (NNW)    
Max Wind Speed 25 mph    
Max Gust Speed 31 mph    
Visibility 8 miles    
Events      
T = Trace of Precipitation, MM = Missing Value Source: NWS Daily Summary

Daily Weather History Graph

Daily Weather History Graph

Search for Another Location

Airport:

Trip Planner

Search our weather history database for the weather conditions in past years. The results will help you decide how hot, cold, wet, or windy it might be!

Date:

Astronomy

Apr. 07, 2013 Rise Set
Actual Time 6:34 AM CDT 7:35 PM CDT
Civil Twilight 6:05 AM CDT 8:04 PM CDT
Nautical Twilight 5:31 AM CDT 8:38 PM CDT
Astronomical Twilight 4:56 AM CDT 9:14 PM CDT
Moon 4:55 AM CDT (4/7) 5:05 PM CDT (4/7)
Length of Visible Light 13h 58m
Length of Day
13h 01m
Waning Crescent, 8% of the Moon is Illuminated
Apr 7
Waning Crescent
Apr 10
New
Apr 18
First Quarter
Apr 25
Full
May 2
Last Quarter

Hourly Weather History & Observations

Time (CDT) Temp. Windchill Dew Point Humidity Pressure Visibility Wind Dir Wind Speed Gust Speed Precip Events Conditions
12:33 AM 42.8 °F 35.1 °F 39.2 °F 87% 29.70 in 8.0 mi NW 16.1 mph - N/A   Partly Cloudy
12:53 AM 42.1 °F 33.6 °F 37.9 °F 85% 29.73 in 8.0 mi NW 18.4 mph 31.1 mph N/A   Clear
1:53 AM 39.9 °F 30.5 °F 36.0 °F 86% 29.76 in 8.0 mi WNW 19.6 mph 24.2 mph N/A   Mostly Cloudy
2:33 AM 39.2 °F 30.2 °F 35.6 °F 87% 29.75 in 8.0 mi NW 17.3 mph - N/A   Overcast
2:53 AM 39.0 °F 31.0 °F 36.0 °F 89% 29.77 in 8.0 mi NW 13.8 mph 21.9 mph N/A   Overcast
3:53 AM 39.0 °F 33.4 °F 36.0 °F 89% 29.80 in 8.0 mi NW 8.1 mph - N/A   Overcast
4:53 AM 37.9 °F 32.7 °F 35.1 °F 89% 29.82 in 8.0 mi NNW 6.9 mph - N/A   Overcast
5:53 AM 36.0 °F 28.0 °F 33.1 °F 89% 29.85 in 8.0 mi NNW 11.5 mph - N/A   Mostly Cloudy
6:53 AM 36.0 °F 29.0 °F 33.1 °F 89% 29.88 in 6.0 mi NW 9.2 mph - N/A   Overcast
7:53 AM 37.0 °F 30.4 °F 33.1 °F 86% 29.90 in 6.0 mi North 9.2 mph - N/A   Overcast
8:53 AM 37.9 °F 32.1 °F 34.0 °F 86% 29.93 in 5.0 mi NNW 8.1 mph - N/A   Overcast
9:27 AM 39.2 °F 34.2 °F 33.8 °F 81% 29.92 in 6.0 mi North 6.9 mph - N/A   Haze
9:53 AM 41.0 °F 37.1 °F 35.1 °F 79% 29.95 in 5.0 mi NNW 5.8 mph - N/A   Haze
10:53 AM 43.0 °F 39.5 °F 35.1 °F 74% 29.98 in 6.0 mi WNW 5.8 mph - N/A   Haze
11:53 AM 46.9 °F - 36.0 °F 66% 29.97 in 6.0 mi Calm Calm - N/A   Haze
12:53 PM 50.0 °F - 36.0 °F 59% 29.96 in 8.0 mi Variable 4.6 mph - N/A   Clear
1:53 PM 52.0 °F - 36.0 °F 54% 29.94 in 9.0 mi Calm Calm - N/A   Clear
2:53 PM 53.1 °F - 37.0 °F 55% 29.93 in 9.0 mi ESE 3.5 mph - N/A   Clear
3:53 PM 55.9 °F - 37.9 °F 51% 29.91 in 10.0 mi Variable 4.6 mph - N/A   Clear
4:53 PM 57.9 °F - 37.9 °F 47% 29.90 in 10.0 mi SW 3.5 mph - N/A   Clear
5:53 PM 59.0 °F - 37.9 °F 46% 29.89 in 10.0 mi South 6.9 mph - N/A   Clear
6:53 PM 57.9 °F - 39.0 °F 49% 29.88 in 10.0 mi SSE 5.8 mph - N/A   Clear
7:53 PM 51.1 °F - 41.0 °F 68% 29.88 in 10.0 mi ESE 5.8 mph - N/A   Clear
8:53 PM 50.0 °F - 41.0 °F 71% 29.88 in 10.0 mi SE 6.9 mph - N/A   Clear
9:53 PM 51.1 °F - 39.9 °F 66% 29.86 in 10.0 mi ESE 11.5 mph - N/A   Scattered Clouds
10:53 PM 50.0 °F - 39.0 °F 66% 29.81 in 10.0 mi East 12.7 mph - N/A   Clear
11:53 PM 50.0 °F - 41.0 °F 71% 29.81 in 10.0 mi ESE 17.3 mph - N/A   Clear